Total_Precipitation_Accumulation
0.75 1.00 1.51 1.65 1.61 1.55 1.52 1.71 1.80 1.64 1.61 1.58 1.58 1.63 1.78 1.83 1.94 1.93 1.84 1.92 1.99 2.01 1.89 1.66 1.57 1.47 1.44 1.52 1.50 1.40 1.29 1.25 1.41 1.52 1.72 1.95 2.21 2.40 2.58 2.74 2.66 2.08 1.96
0.45 0.66 1.18 1.37 1.40 1.33 1.38 1.48 1.52 1.45 1.45 1.47 1.46 1.49 1.46 1.50 1.56 1.59 1.67 1.81 1.85 1.87 1.71 1.59 1.41 1.25 1.25 1.22 1.26 1.16 1.15 1.40 1.71 1.96 2.32 2.46 2.59 2.62 2.63 2.73 2.75 2.14 1.96
0.30 0.43 0.87 1.18 1.25 1.25 1.27 1.22 1.25 1.28 1.27 1.36 1.38 1.42 1.36 1.33 1.46 1.53 1.65 1.66 1.82 1.79 1.59 1.50 1.29 1.15 1.14 1.11 1.05 1.05 1.20 1.53 2.08 2.54 2.74 2.49 2.18 2.44 2.51 2.63 2.53 1.98 1.84
0.22 0.32 0.61 0.99 1.08 1.05 1.06 1.08 1.09 1.05 1.01 1.16 1.23 1.30 1.35 1.35 1.46 1.57 1.58 1.60 1.81 1.69 1.55 1.43 1.32 1.12 1.00 0.99 1.02 1.13 1.33 1.61 2.10 2.61 2.50 2.21 1.90 2.05 2.19 2.09 2.03 1.79 1.69
0.21 0.27 0.47 0.77 0.91 0.93 0.91 1.01 0.97 0.84 0.88 1.06 1.19 1.22 1.32 1.40 1.47 1.54 1.52 1.61 1.80 1.78 1.63 1.47 1.32 1.11 1.01 0.97 0.98 1.14 1.37 1.74 2.16 2.29 1.90 2.00 2.14 2.05 1.93 1.83 1.85 1.67 1.44
0.21 0.26 0.40 0.65 0.72 0.77 0.76 0.94 0.90 0.84 0.87 1.01 1.15 1.12 1.17 1.28 1.49 1.59 1.55 1.67 1.74 1.66 1.51 1.39 1.21 1.06 0.95 0.94 1.03 1.17 1.48 1.90 1.96 1.59 1.49 1.66 1.60 1.84 1.76 1.73 1.65 1.45 1.21
0.21 0.31 0.35 0.59 0.67 0.74 0.81 0.92 0.92 0.83 0.79 0.90 1.00 0.97 1.05 1.27 1.49 1.65 1.67 1.72 1.71 1.62 1.38 1.22 1.13 1.03 0.94 0.96 1.06 1.13 1.39 1.78 1.64 1.39 1.37 1.51 1.34 1.52 1.65 1.66 1.62 1.36 1.13
0.24 0.36 0.42 0.59 0.67 0.75 0.82 0.88 0.92 0.85 0.82 0.89 1.02 1.00 1.08 1.32 1.54 1.67 1.77 1.86 1.75 1.59 1.31 1.15 1.00 0.91 0.90 0.96 1.06 1.09 1.26 1.41 1.22 1.13 1.14 1.18 1.16 1.30 1.53 1.45 1.41 1.29 1.08
0.43 0.40 0.44 0.53 0.72 0.82 0.92 0.99 0.98 0.95 0.91 1.01 1.19 1.13 1.17 1.31 1.52 1.64 1.78 1.86 1.72 1.56 1.30 1.11 0.94 0.85 0.88 0.90 0.98 1.04 1.23 1.40 1.20 1.21 1.12 1.03 1.00 1.18 1.45 1.34 1.27 1.27 1.13
0.75 0.56 0.53 0.58 0.77 0.89 0.94 0.98 1.07 0.99 0.98 1.06 1.20 1.24 1.43 1.49 1.57 1.63 1.84 1.85 1.69 1.53 1.25 1.11 0.98 0.89 0.91 0.91 1.00 1.16 1.34 1.31 1.23 1.29 1.16 0.83 0.93 1.22 1.48 1.48 1.45 1.45 1.26
1.07 0.98 0.93 0.82 0.80 0.94 0.95 0.97 1.20 1.21 1.20 1.23 1.30 1.50 1.74 2.06 2.09 2.16 2.18 2.02 1.85 1.67 1.51 1.37 1.26 1.11 1.08 1.02 1.25 1.38 1.28 1.34 1.52 1.44 1.20 0.88 0.98 1.44 1.64 1.67 1.61 1.57 1.52
1.35 1.30 1.39 1.17 0.97 0.97 0.95 1.29 1.70 1.66 1.72 1.78 1.84 1.94 2.33 2.57 2.84 2.49 2.62 2.51 2.41 2.30 2.07 1.98 1.95 1.60 1.26 1.09 1.39 1.55 1.38 1.41 1.56 1.32 1.07 0.98 1.13 1.57 1.79 1.69 1.65 1.60 1.59
1.77 1.57 1.43 1.49 1.43 1.43 1.51 1.58 1.74 2.03 2.19 2.25 2.28 2.33 2.58 2.49 2.60 2.58 2.78 3.03 2.88 2.52 2.21 2.33 2.39 1.91 1.78 1.97 1.98 1.80 1.68 1.52 1.58 1.36 1.23 1.25 1.37 1.73 1.96 1.79 1.77 1.70 1.52
2.39 2.34 2.30 2.15 2.05 2.06 1.94 1.76 1.71 1.82 1.93 1.99 2.10 2.20 2.40 2.69 2.74 2.82 3.02 2.88 2.72 2.58 2.73 2.56 2.69 2.48 2.29 2.13 2.07 2.17 2.10 1.83 1.79 1.74 1.70 1.65 1.71 1.93 2.12 2.02 1.92 1.88 1.73
2.91 3.18 3.68 3.51 2.92 2.61 2.36 2.09 1.71 1.77 1.64 1.53 1.69 2.01 2.17 2.37 2.61 2.75 2.59 2.48 2.17 2.28 2.53 2.62 2.36 2.55 2.53 2.49 2.41 2.38 2.38 2.11 1.94 1.90 1.94 2.11 2.07 2.03 2.22 2.29 2.17 2.12 2.08
3.76 3.81 4.00 4.49 3.87 3.15 2.63 2.28 1.99 1.73 1.73 1.65 1.77 1.77 1.99 2.18 2.27 2.34 2.23 2.22 2.10 2.15 2.31 2.30 2.28 2.58 2.69 2.61 2.27 2.10 2.09 2.10 2.03 1.91 2.05 2.16 2.19 2.00 2.12 2.42 2.54 2.49 2.52
4.34 4.47 4.55 4.86 4.54 4.02 3.42 2.82 2.31 2.06 1.81 1.83 1.94 1.72 1.76 1.94 2.01 2.08 2.09 2.04 2.08 1.98 2.01 2.00 2.07 2.27 2.28 2.25 2.07 1.91 1.93 1.97 2.03 2.02 1.96 2.04 2.11 2.16 2.14 2.31 2.52 2.58 2.76
5.01 5.25 5.27 5.04 4.99 4.63 3.96 3.37 2.95 2.67 2.32 2.06 1.94 1.77 1.59 1.68 1.76 1.86 1.77 1.75 1.74 1.67 1.67 1.87 1.94 2.10 2.25 2.29 2.26 2.02 2.05 2.11 1.97 2.05 2.07 2.03 2.29 2.13 2.39 2.54 2.53 2.50 2.82
6.19 6.62 6.40 5.72 5.28 4.85 4.26 3.73 3.57 3.37 2.92 2.41 2.23 2.03 1.85 1.67 1.64 1.72 1.74 1.77 1.51 1.54 1.58 1.53 1.82 1.99 2.25 2.29 1.94 1.97 1.85 1.86 1.87 1.74 1.98 1.90 2.08 2.22 2.44 2.49 2.58 2.48 2.80
6.52 7.23 7.12 6.45 5.59 4.91 4.56 4.11 3.93 3.61 3.15 2.59 2.37 2.25 1.98 1.84 1.63 1.65 1.56 1.50 1.35 1.50 1.69 1.82 2.20 2.13 2.05 2.04 1.70 1.92 1.76 1.54 1.62 1.73 1.73 1.85 1.94 1.80 2.09 2.41 2.64 2.21 2.55
5.52 6.11 5.97 5.35 4.86 4.29 3.79 3.28 3.20 3.02 2.72 2.45 2.19 1.91 1.86 1.81 1.64 1.71 1.64 1.73 1.47 1.50 1.56 1.57 1.76 1.88 1.79 1.79 2.13 2.24 1.85 1.53 1.57 1.58 1.59 1.84 1.91 1.91 2.23 2.62 2.75 2.67 2.32
4.00 4.26 3.76 3.57 3.56 3.16 2.85 2.80 2.73 2.61 2.33 2.11 1.97 1.91 1.55 1.55 1.54 1.49 1.72 1.63 1.54 1.64 1.60 1.60 1.74 1.84 1.78 1.83 2.05 2.30 2.07 2.07 1.85 1.39 1.63 1.77 1.81 2.04 2.15 2.28 2.58 2.85 2.52
2.79 2.78 2.56 2.50 2.81 2.74 2.69 2.63 2.62 2.61 2.49 2.23 1.90 1.85 1.53 1.37 1.39 1.53 1.56 1.64 1.70 1.42 1.60 1.69 1.63 1.68 1.75 1.70 1.73 2.05 2.09 2.11 1.87 1.48 1.44 1.51 1.70 2.00 2.08 2.20 2.08 2.30 2.48
1.91 2.01 2.26 2.35 2.49 2.40 2.46 2.28 2.09 1.92 1.82 1.73 1.67 1.71 1.70 1.50 1.39 1.35 1.42 1.65 1.74 1.50 1.68 1.35 1.44 1.67 1.76 1.63 1.65 1.58 1.60 1.77 1.91 1.86 1.60 1.48 1.58 1.74 1.87 1.96 2.10 2.29 2.42
1.50 1.73 2.12 2.22 2.28 2.22 2.15 2.13 2.12 2.00 1.99 1.88 1.81 1.96 1.94 1.91 1.71 1.41 1.43 1.63 1.75 1.68 1.69 1.56 1.77 1.59 1.50 1.49 1.55 1.60 1.62 1.57 1.48 1.72 1.81 1.72 1.64 1.47 1.51 1.62 1.72 1.84 1.92
1.36 1.45 1.67 1.85 2.04 2.10 2.11 2.16 2.10 2.07 2.14 2.00 1.85 1.77 1.73 1.79 1.74 1.64 1.62 1.81 1.81 1.75 1.75 1.67 1.71 1.63 1.61 1.60 1.52 1.48 1.72 1.71 1.58 1.70 1.60 1.60 1.59 1.30 1.29 1.40 1.46 1.53 1.65